Location: Stanford
(52.2833°N, 2.4333°W)
Time: 00:57:02
(UTC+00:00)

Helios 1A Rocket - Pass Details

Date: 22 January 2021
Orbit: 562 x 587 km, 98.3° (Epoch: 28 February)

Event Time Altitude Azimuth Distance (km) Brightness Sun altitude
Rises 18:42:34 0° 160° (SSE) 2,803 6.3 -18.5°
Reaches altitude 10° 18:44:43 10° 160° (SSE) 1,909 5.4 -18.8°
Maximum altitude 18:48:51 81° 74° (ENE) 602 2.8 -19.4°
Drops below altitude 10° 18:53:02 10° 347° (NNW) 1,924 5.7 -20.1°
Sets 18:55:12 0° 346° (NNW) 2,828 6.6 -20.4°
